Regional Weather Roundup
Issued by NWS

Home | Current Version | Previous Version | Graphics & Text | Print | Product List | Glossary On
Versions: 1 2 3 4 5 6 7 8 9 10 11 12 13 14 15 16 17 18 19 20 21 22 23 24 25 26 27 28 29 30 31 32 33 34 35 36 37 38 39 40 41 42 43 44 45 46 47 48 49 50
000
ASUS43 KLSX 232307
RWRMO

WEATHER SUMMARY FOR MISSOURI
NATIONAL WEATHER SERVICE SPRINGFIELD MO
500 PM CST FRI FEB 23 2018

NOTE: "FAIR" INDICATES FEW OR NO CLOUDS BELOW 12,000 FEET WITH NO
       SIGNIFICANT WEATHER AND/OR OBSTRUCTIONS TO VISIBILITY.
       CURRENT SKY AND/OR WEATHER CONDITIONS ARE NOT AVAILABLE FOR
       CHILLICOTHE AND FARMINGTON.

MOZ001>031-035>038-043-044-053-054-240000-
...NORTHERN AND WESTERN MISSOURI...

CITY           SKY/WX    TMP DP  RH WIND       PRES   REMARKS
KANSAS CTY INT CLOUDY    34  29  82 NE7       30.23F WCI  28
KANSAS C DTWN  CLOUDY    37  28  70 NE3       30.26S
LEE`S SUMMIT   CLOUDY    35  31  85 E5        30.26R
ST JOSEPH      CLOUDY    36  30  79 NE3       30.27S
CHILLICOTHE      N/A     38  30  73 N7        30.27S
KIRKSVILLE     CLOUDY    39  33  79 N3        30.25F

$$
MOZ066>068-077>081-088>096-101>105-240000-
...SOUTHWEST MISSOURI...

CITY           SKY/WX    TMP DP  RH WIND       PRES   REMARKS
SPRINGFIELD    LGT RAIN  46  45  96 N7        30.18F
JOPLIN         RAIN      41  41 100 NE5       30.17F FOG
BRANSON        LGT RAIN  45  45 100 SE10      30.18F VSB 1

$$
MOZ032>034-039>042-045>050-055>058-069>072-240000-
...CENTRAL MISSOURI...

CITY           SKY/WX    TMP DP  RH WIND       PRES   REMARKS
COLUMBIA       CLOUDY    38  35  89 N3        30.27R
JEFFERSON CITY CLOUDY    39  36  89 N5        30.28R
ROLLA          CLOUDY    44  42  93 NE3       30.23S
SEDALIA        CLOUDY    38  36  92 CALM      30.27F
WHITEMAN AFB   CLOUDY    37  33  87 NE6       30.22F
WARRENSBURG    CLOUDY    36  32  87 N5        30.28R
OSAGE BEACH    CLOUDY    42  39  89 NE6       30.24R

$$
MOZ051-052-059>065-240000-
...EAST CENTRAL MISSOURI...

CITY           SKY/WX    TMP DP  RH WIND       PRES   REMARKS
ST LOUIS INTL  CLOUDY    45  41  86 N6        30.25F
SPIRIT OF STL  CLOUDY    47  41  80 N7        30.25F
ST CHARLES       N/A     45  40  82 N8        30.26S

$$
MOZ072>076-082>087-097>100-106>115-240000-
...SOUTH CENTRAL AND SOUTHEAST MISSOURI...

CITY           SKY/WX    TMP DP  RH WIND       PRES   REMARKS
CAPE GIRARDEAU CLOUDY    55  51  86 NW6       30.25R
FARMINGTON     LGT RAIN  49  46  90 CALM      30.25R
POPLAR BLUFF   CLOUDY    52  49  89 CALM      30.25R
WEST PLAINS    LGT RAIN  48  46  93 CALM      30.26R

$$



USA.gov is the U.S. government's official web portal to all federal, state and local government web resources and services.